This is the latest recevied weather packets stored in our database for station/object KF4LQQ-13. If no packets are shown the sender has not sent any weather packets the latest 10 day(s).
| Time | Temp. | Humidity | Pressure | Rain* | Wind** | Luminosity | Snow |
|---|---|---|---|---|---|---|---|
| 1778017595 | 27.78° C | - | 1011.8 hPa | 0 mm | - | - | - |
| 1778016993 | 28.89° C | - | 1011.7 hPa | 0 mm | - | - | - |
| 1778016393 | 28.89° C | - | 1011.7 hPa | 0 mm | - | - | - |
| 1778015792 | 28.33° C | - | 1011.8 hPa | 0 mm | - | - | - |
| 1778015366 | 28.33° C | - | 1011.9 hPa | 0 mm | - | - | - |
| 1778015192 | 28.33° C | - | 1011.9 hPa | 0 mm | - | - | - |
| 1778014592 | 28.89° C | - | 1011.9 hPa | 0 mm | - | - | - |
| 1778013991 | 28.33° C | - | 1011.9 hPa | 0 mm | - | - | - |
| 1778012789 | 29.44° C | - | 1012.1 hPa | 0 mm | - | - | - |
| 1778011589 | 29.44° C | - | 1012.2 hPa | 0 mm | - | - | - |
| 1778011204 | 29.44° C | - | 1012.2 hPa | 0 mm | - | - | - |
| 1778010989 | 28.33° C | - | 1012.3 hPa | 0 mm | - | - | - |
| 1778010388 | 29.44° C | - | 1012.2 hPa | 0 mm | - | - | - |
| 1778009788 | 30° C | - | 1012.1 hPa | 0 mm | - | - | - |
| 1778009188 | 28.89° C | - | 1012.1 hPa | 0 mm | - | - | - |
| 1778008587 | 30° C | - | 1012.2 hPa | 0 mm | - | - | - |
| 1778007987 | 29.44° C | - | 1012.1 hPa | 0 mm | - | - | - |
| 1778007387 | 30° C | - | 1012.2 hPa | 0 mm | - | - | - |
| 1778006787 | 30° C | - | 1012.4 hPa | 0 mm | - | - | - |
| 1778006186 | 30° C | - | 1012.4 hPa | 0 mm | - | - | - |
| 1778005586 | 29.44° C | - | 1012.5 hPa | 0 mm | - | - | - |
| 1778005299 | 28.33° C | - | 1012.8 hPa | 0 mm | - | - | - |
| 1778004986 | 29.44° C | - | 1012.7 hPa | 0 mm | - | - | - |
| 1778004385 | 28.33° C | - | 1012.8 hPa | 0 mm | - | - | - |
| 1778003785 | 28.33° C | - | 1012.9 hPa | 0 mm | - | - | - |
* Rain since midnight (hover to see other rain measurements)
** Current wind speed in m/s (hover to see current wind gust speed)